Time,TemperatureF,DewpointF,PressureIn,WindDirection,WindDirectionDegrees,WindSpeedMPH,WindSpeedGustMPH,Humidity,HourlyPrecipIn,Conditions,Clouds,dailyrainin,SoftwareType,DateUTC
2013-05-06 00:10:00,64.8,60.0,29.95,WSW,238,3.0,8.0,83,0.00,,,0.00,weatherlink.com 1.10,2013-05-06 04:10:00,
2013-05-06 00:25:00,64.0,59.0,29.95,SW,218,4.0,7.0,84,0.00,,,0.00,weatherlink.com 1.10,2013-05-06 04:25:00,
2013-05-06 00:40:00,63.9,59.0,29.95,SSW,210,3.0,7.0,84,0.00,,,0.00,weatherlink.com 1.10,2013-05-06 04:40:00,
2013-05-06 00:55:00,63.8,59.0,29.95,SSW,213,2.0,5.0,85,0.00,,,0.00,weatherlink.com 1.10,2013-05-06 04:55:00,
2013-05-06 01:10:00,63.8,59.0,29.94,SW,223,3.0,6.0,85,0.00,,,0.00,weatherlink.com 1.10,2013-05-06 05:10:00,
2013-05-06 01:25:00,63.9,60.0,29.94,SSW,200,3.0,5.0,86,0.00,,,0.00,weatherlink.com 1.10,2013-05-06 05:25:00,
2013-05-06 01:40:00,63.8,60.0,29.94,SSW,202,2.0,7.0,86,0.00,,,0.00,weatherlink.com 1.10,2013-05-06 05:40:00,
2013-05-06 01:55:00,63.5,60.0,29.93,SSW,202,3.0,6.0,87,0.00,,,0.00,weatherlink.com 1.10,2013-05-06 05:55:00,
2013-05-06 02:10:00,63.6,60.0,29.93,SSW,211,3.0,6.0,87,0.00,,,0.00,weatherlink.com 1.10,2013-05-06 06:10:00,
2013-05-06 02:25:00,63.4,60.0,29.92,SW,221,3.0,7.0,88,0.00,,,0.00,weatherlink.com 1.10,2013-05-06 06:25:00,
2013-05-06 02:40:00,63.1,60.0,29.92,SSW,211,2.0,5.0,89,0.00,,,0.00,weatherlink.com 1.10,2013-05-06 06:40:00,
2013-05-06 02:55:00,63.1,60.0,29.92,SW,219,2.0,4.0,89,0.00,,,0.00,weatherlink.com 1.10,2013-05-06 06:55:00,
2013-05-06 03:10:00,63.0,60.0,29.92,SSW,210,2.0,6.0,91,0.00,,,0.00,weatherlink.com 1.10,2013-05-06 07:10:00,
2013-05-06 03:25:00,63.1,60.0,29.91,SSW,196,4.0,4.0,90,0.00,,,0.00,weatherlink.com 1.10,2013-05-06 07:25:00,
2013-05-06 03:40:00,63.9,61.0,29.92,SSW,206,1.0,5.0,89,0.00,,,0.00,weatherlink.com 1.10,2013-05-06 07:40:00,
2013-05-06 03:55:00,64.4,61.0,29.91,SSW,210,2.0,5.0,89,0.00,,,0.00,weatherlink.com 1.10,2013-05-06 07:55:00,
2013-05-06 04:10:00,64.4,61.0,29.91,SSW,213,3.0,7.0,89,0.00,,,0.00,weatherlink.com 1.10,2013-05-06 08:10:00,
2013-05-06 04:25:00,64.5,61.0,29.92,WSW,238,3.0,7.0,88,0.00,,,0.00,weatherlink.com 1.10,2013-05-06 08:25:00,
2013-05-06 04:40:00,64.6,61.0,29.92,SW,227,7.0,7.0,88,0.00,,,0.00,weatherlink.com 1.10,2013-05-06 08:40:00,
2013-05-06 04:55:00,65.0,61.0,29.92,SW,234,3.0,6.0,88,0.00,,,0.00,weatherlink.com 1.10,2013-05-06 08:55:00,
2013-05-06 05:10:00,65.1,62.0,29.92,SW,234,4.0,7.0,88,0.00,,,0.00,weatherlink.com 1.10,2013-05-06 09:10:00,
2013-05-06 05:25:00,65.0,61.0,29.92,SW,230,3.0,6.0,88,0.00,,,0.00,weatherlink.com 1.10,2013-05-06 09:25:00,
2013-05-06 05:40:00,65.0,62.0,29.93,SW,231,3.0,6.0,89,0.00,,,0.00,weatherlink.com 1.10,2013-05-06 09:40:00,
2013-05-06 05:55:00,64.9,62.0,29.93,SSW,212,2.0,6.0,89,0.00,,,0.00,weatherlink.com 1.10,2013-05-06 09:55:00,
2013-05-06 06:10:00,65.4,63.0,29.94,WNW,282,3.0,5.0,90,0.00,,,0.00,weatherlink.com 1.10,2013-05-06 10:10:00,
2013-05-06 06:25:00,66.1,63.0,29.94,WNW,300,2.0,6.0,88,0.00,,,0.00,weatherlink.com 1.10,2013-05-06 10:25:00,
2013-05-06 06:40:00,65.0,62.0,29.95,NNW,339,4.0,4.0,89,0.00,,,0.00,weatherlink.com 1.10,2013-05-06 10:40:00,
2013-05-06 06:56:00,64.6,62.0,29.96,NNW,332,2.0,4.0,90,0.00,,,0.00,weatherlink.com 1.10,2013-05-06 10:56:00,
2013-05-06 07:11:00,64.8,62.0,29.96,NNW,329,1.0,4.0,90,0.00,,,0.00,weatherlink.com 1.10,2013-05-06 11:11:00,
2013-05-06 07:26:00,65.2,62.0,29.97,NNW,337,3.0,5.0,89,0.00,,,0.00,weatherlink.com 1.10,2013-05-06 11:26:00,
2013-05-06 07:41:00,65.1,62.0,29.98,North,360,5.0,6.0,89,0.00,,,0.00,weatherlink.com 1.10,2013-05-06 11:41:00,
2013-05-06 07:56:00,65.2,62.0,29.98,NNW,342,2.0,6.0,88,0.00,,,0.00,weatherlink.com 1.10,2013-05-06 11:56:00,
2013-05-06 08:11:00,66.4,63.0,29.99,North,5,5.0,8.0,87,0.00,,,0.00,weatherlink.com 1.10,2013-05-06 12:11:00,
2013-05-06 08:26:00,67.0,61.0,29.99,NNW,329,5.0,8.0,81,0.00,,,0.00,weatherlink.com 1.10,2013-05-06 12:26:00,
2013-05-06 08:41:00,68.0,61.0,29.98,NW,321,4.0,10.0,79,0.00,,,0.00,weatherlink.com 1.10,2013-05-06 12:41:00,
2013-05-06 08:56:00,68.4,60.0,29.99,NW,312,7.0,10.0,75,0.00,,,0.00,weatherlink.com 1.10,2013-05-06 12:56:00,
2013-05-06 09:11:00,68.9,60.0,29.99,North,5,4.0,10.0,73,0.00,,,0.00,weatherlink.com 1.10,2013-05-06 13:11:00,
2013-05-06 09:26:00,68.8,59.0,29.99,WNW,297,8.0,13.0,70,0.00,,,0.00,weatherlink.com 1.10,2013-05-06 13:26:00,
2013-05-06 09:41:00,69.5,60.0,29.99,NW,314,5.0,13.0,72,0.00,,,0.00,weatherlink.com 1.10,2013-05-06 13:41:00,
2013-05-06 09:56:00,69.5,60.0,30.00,WNW,298,7.0,11.0,72,0.00,,,0.00,weatherlink.com 1.10,2013-05-06 13:56:00,
2013-05-06 10:11:00,69.7,61.0,30.00,North,349,10.0,11.0,73,0.00,,,0.00,weatherlink.com 1.10,2013-05-06 14:11:00,
2013-05-06 10:26:00,70.1,60.0,30.00,North,9,9.0,9.0,70,0.00,,,0.00,weatherlink.com 1.10,2013-05-06 14:26:00,
2013-05-06 10:41:00,70.7,60.0,30.00,NNW,328,8.0,11.0,70,0.00,,,0.00,weatherlink.com 1.10,2013-05-06 14:41:00,
2013-05-06 10:56:00,71.1,60.0,30.00,NNW,329,2.0,11.0,69,0.00,,,0.00,weatherlink.com 1.10,2013-05-06 14:56:00,
2013-05-06 11:11:00,71.4,59.0,30.00,WNW,288,7.0,10.0,66,0.00,,,0.00,weatherlink.com 1.10,2013-05-06 15:11:00,
2013-05-06 11:26:00,72.0,58.0,30.01,West,279,6.0,14.0,62,0.00,,,0.00,weatherlink.com 1.10,2013-05-06 15:26:00,
2013-05-06 11:41:00,72.2,59.0,30.00,WNW,285,11.0,13.0,63,0.00,,,0.00,weatherlink.com 1.10,2013-05-06 15:41:00,
2013-05-06 11:56:00,72.9,59.0,30.00,West,281,9.0,14.0,62,0.00,,,0.00,weatherlink.com 1.10,2013-05-06 15:56:00,
2013-05-06 12:11:00,74.3,59.0,30.00,West,278,5.0,17.0,59,0.00,,,0.00,weatherlink.com 1.10,2013-05-06 16:11:00,
2013-05-06 12:26:00,73.9,57.0,29.99,WNW,295,10.0,16.0,55,0.00,,,0.00,weatherlink.com 1.10,2013-05-06 16:26:00,
2013-05-06 12:41:00,74.0,56.0,29.99,West,267,7.0,15.0,53,0.00,,,0.00,weatherlink.com 1.10,2013-05-06 16:41:00,
2013-05-06 12:56:00,74.6,57.0,29.99,WNW,283,4.0,15.0,55,0.00,,,0.00,weatherlink.com 1.10,2013-05-06 16:56:00,
2013-05-06 13:11:00,75.0,54.0,29.98,NW,316,8.0,17.0,49,0.00,,,0.00,weatherlink.com 1.10,2013-05-06 17:11:00,
2013-05-06 13:26:00,75.2,56.0,29.98,WNW,292,9.0,15.0,51,0.00,,,0.00,weatherlink.com 1.10,2013-05-06 17:26:00,
2013-05-06 13:41:00,75.2,54.0,29.98,NW,326,10.0,18.0,47,0.00,,,0.00,weatherlink.com 1.10,2013-05-06 17:41:00,
2013-05-06 13:56:00,75.1,56.0,29.98,West,269,14.0,15.0,52,0.00,,,0.00,weatherlink.com 1.10,2013-05-06 17:56:00,
2013-05-06 14:11:00,75.7,54.0,29.97,NW,309,7.0,16.0,47,0.00,,,0.00,weatherlink.com 1.10,2013-05-06 18:11:00,
2013-05-06 14:26:00,76.0,55.0,29.97,West,277,10.0,17.0,49,0.00,,,0.00,weatherlink.com 1.10,2013-05-06 18:26:00,
2013-05-06 14:41:00,76.0,56.0,29.97,West,274,9.0,15.0,50,0.00,,,0.00,weatherlink.com 1.10,2013-05-06 18:41:00,
2013-05-06 14:56:00,75.6,56.0,29.96,West,269,11.0,19.0,50,0.00,,,0.00,weatherlink.com 1.10,2013-05-06 18:56:00,
2013-05-06 15:11:00,75.7,56.0,29.96,NNW,329,5.0,13.0,50,0.00,,,0.00,weatherlink.com 1.10,2013-05-06 19:11:00,
2013-05-06 15:26:00,75.6,57.0,29.95,WNW,292,11.0,17.0,52,0.00,,,0.00,weatherlink.com 1.10,2013-05-06 19:26:00,
2013-05-06 15:42:00,75.3,55.0,29.95,NW,312,8.0,16.0,49,0.00,,,0.00,weatherlink.com 1.10,2013-05-06 19:42:00,
2013-05-06 15:57:00,75.2,55.0,29.94,WNW,298,12.0,20.0,50,0.00,,,0.00,weatherlink.com 1.10,2013-05-06 19:57:00,
2013-05-06 16:12:00,74.5,55.0,29.94,NW,306,12.0,16.0,50,0.00,,,0.00,weatherlink.com 1.10,2013-05-06 20:12:00,
2013-05-06 16:27:00,74.3,55.0,29.94,WNW,288,11.0,17.0,52,0.00,,,0.00,weatherlink.com 1.10,2013-05-06 20:27:00,
2013-05-06 16:42:00,74.0,55.0,29.94,West,259,13.0,18.0,52,0.00,,,0.00,weatherlink.com 1.10,2013-05-06 20:42:00,
2013-05-06 16:57:00,73.5,55.0,29.94,WNW,302,12.0,17.0,53,0.00,,,0.00,weatherlink.com 1.10,2013-05-06 20:57:00,
2013-05-06 17:12:00,73.4,56.0,29.93,NW,311,8.0,16.0,54,0.00,,,0.00,weatherlink.com 1.10,2013-05-06 21:12:00,
2013-05-06 17:27:00,73.2,54.0,29.94,NW,325,10.0,18.0,52,0.00,,,0.00,weatherlink.com 1.10,2013-05-06 21:27:00,
2013-05-06 17:42:00,72.3,55.0,29.94,West,273,7.0,15.0,55,0.00,,,0.00,weatherlink.com 1.10,2013-05-06 21:42:00,
2013-05-06 17:57:00,72.5,55.0,29.94,WNW,284,10.0,15.0,55,0.00,,,0.00,weatherlink.com 1.10,2013-05-06 21:57:00,
2013-05-06 18:12:00,72.3,55.0,29.93,NW,307,11.0,14.0,55,0.00,,,0.00,weatherlink.com 1.10,2013-05-06 22:12:00,
2013-05-06 18:27:00,71.9,54.0,29.94,NW,315,7.0,16.0,54,0.00,,,0.00,weatherlink.com 1.10,2013-05-06 22:27:00,
2013-05-06 18:42:00,71.4,55.0,29.94,WNW,286,7.0,14.0,56,0.00,,,0.00,weatherlink.com 1.10,2013-05-06 22:42:00,
2013-05-06 18:57:00,71.0,54.0,29.94,NW,325,7.0,14.0,55,0.00,,,0.00,weatherlink.com 1.10,2013-05-06 22:57:00,
2013-05-06 19:12:00,70.3,54.0,29.95,NW,317,11.0,16.0,57,0.00,,,0.00,weatherlink.com 1.10,2013-05-06 23:12:00,
2013-05-06 19:27:00,69.6,55.0,29.95,West,278,6.0,12.0,61,0.00,,,0.00,weatherlink.com 1.10,2013-05-06 23:27:00,
2013-05-06 19:42:00,69.1,55.0,29.95,WNW,301,6.0,13.0,61,0.00,,,0.00,weatherlink.com 1.10,2013-05-06 23:42:00,
2013-05-06 19:57:00,68.8,55.0,29.96,West,277,6.0,10.0,62,0.00,,,0.00,weatherlink.com 1.10,2013-05-06 23:57:00,
2013-05-06 20:12:00,68.2,55.0,29.96,WNW,296,3.0,11.0,63,0.00,,,0.00,weatherlink.com 1.10,2013-05-07 00:12:00,
2013-05-06 20:27:00,67.4,55.0,29.96,NNW,331,3.0,10.0,65,0.00,,,0.00,weatherlink.com 1.10,2013-05-07 00:27:00,
2013-05-06 20:42:00,66.5,55.0,29.97,NNW,342,4.0,8.0,67,0.00,,,0.00,weatherlink.com 1.10,2013-05-07 00:42:00,
2013-05-06 20:57:00,65.0,55.0,29.98,NNW,333,4.0,6.0,69,0.00,,,0.00,weatherlink.com 1.10,2013-05-07 00:57:00,
2013-05-06 21:12:00,64.2,55.0,29.98,NNW,345,5.0,7.0,72,0.00,,,0.00,weatherlink.com 1.10,2013-05-07 01:12:00,
2013-05-06 21:27:00,63.6,55.0,29.99,NNW,342,5.0,7.0,73,0.00,,,0.00,weatherlink.com 1.10,2013-05-07 01:27:00,
2013-05-06 21:42:00,63.1,55.0,30.00,NNW,338,4.0,5.0,74,0.00,,,0.00,weatherlink.com 1.10,2013-05-07 01:42:00,
2013-05-06 21:57:00,62.7,55.0,30.00,North,355,5.0,7.0,75,0.00,,,0.00,weatherlink.com 1.10,2013-05-07 01:57:00,
2013-05-06 22:12:00,62.2,55.0,30.00,NNW,340,3.0,6.0,77,0.00,,,0.00,weatherlink.com 1.10,2013-05-07 02:12:00,
2013-05-06 22:27:00,62.0,55.0,30.01,NNW,344,6.0,10.0,79,0.00,,,0.00,weatherlink.com 1.10,2013-05-07 02:27:00,
2013-05-06 22:42:00,61.6,55.0,30.01,NNW,345,4.0,7.0,79,0.00,,,0.00,weatherlink.com 1.10,2013-05-07 02:42:00,
2013-05-06 22:57:00,61.5,55.0,30.02,NNW,348,3.0,8.0,79,0.00,,,0.00,weatherlink.com 1.10,2013-05-07 02:57:00,
2013-05-06 23:12:00,60.8,55.0,30.02,North,9,6.0,6.0,81,0.00,,,0.00,weatherlink.com 1.10,2013-05-07 03:12:00,
2013-05-06 23:27:00,60.5,55.0,30.02,NNW,346,4.0,5.0,81,0.00,,,0.00,weatherlink.com 1.10,2013-05-07 03:27:00,
2013-05-06 23:42:00,60.4,55.0,30.02,NNW,341,4.0,4.0,81,0.00,,,0.00,weatherlink.com 1.10,2013-05-07 03:42:00,
2013-05-06 23:57:00,60.2,55.0,30.02,NNW,338,4.0,4.0,82,0.00,,,0.00,weatherlink.com 1.10,2013-05-07 03:57:00,